Estación de Algarrobo Bajo INIA

Ultimos registro cada 15 minutos 93
Estación Fecha / Hora Temperatura Humedad Lluvia Velocidad Dirección Radiación Presion
93 Algarrobo Bajo INIA 09-05-2026 23:00 8 83,5 0 0,2 330 0 0
92 Algarrobo Bajo INIA 09-05-2026 22:45 8 84,6 0 0,7 318 0 0
91 Algarrobo Bajo INIA 09-05-2026 22:30 8,2 84,4 0 0,1 307 0 0
90 Algarrobo Bajo INIA 09-05-2026 22:15 8,6 83,8 0 0,2 296 0 0
89 Algarrobo Bajo INIA 09-05-2026 22:00 9 83 0 0,2 312 0 0
88 Algarrobo Bajo INIA 09-05-2026 21:45 9,3 82,6 0 0 0 0 0
87 Algarrobo Bajo INIA 09-05-2026 21:30 9,6 80,6 0 0,2 300 0 0
86 Algarrobo Bajo INIA 09-05-2026 21:15 9,4 81,3 0 0 302 0 0
85 Algarrobo Bajo INIA 09-05-2026 21:00 9,8 80,9 0 0 0 0 0
84 Algarrobo Bajo INIA 09-05-2026 20:45 9,9 80,4 0 0 0 0 0
83 Algarrobo Bajo INIA 09-05-2026 20:30 10,3 80,4 0 0,1 276 0 0
82 Algarrobo Bajo INIA 09-05-2026 20:15 10,5 80,4 0 0,2 272 0 0
81 Algarrobo Bajo INIA 09-05-2026 20:00 10,9 79,6 0 0,1 259 0 0
80 Algarrobo Bajo INIA 09-05-2026 19:45 11,2 78,8 0 0,4 221 0 0
79 Algarrobo Bajo INIA 09-05-2026 19:30 11,6 78,4 0 0,8 230 0 0
78 Algarrobo Bajo INIA 09-05-2026 19:15 12,1 74,1 0 0,2 240 0 0
77 Algarrobo Bajo INIA 09-05-2026 19:00 12,4 74,4 0 0,1 233 0 0
76 Algarrobo Bajo INIA 09-05-2026 18:45 13 71,9 0 0,2 216 0 0
75 Algarrobo Bajo INIA 09-05-2026 18:30 13,2 71,3 0 0,5 248 1 0
74 Algarrobo Bajo INIA 09-05-2026 18:15 13,9 69,2 0 0,5 241 4 0
73 Algarrobo Bajo INIA 09-05-2026 18:00 14,7 66,5 0 0,8 236 12 0
72 Algarrobo Bajo INIA 09-05-2026 17:45 15,6 63,3 0 1,1 228 39 0
71 Algarrobo Bajo INIA 09-05-2026 17:30 16,4 60,6 0 1,4 238 84 0
70 Algarrobo Bajo INIA 09-05-2026 17:15 16,8 59,2 0 2,1 218 130 0
69 Algarrobo Bajo INIA 09-05-2026 17:00 17,3 57,1 0 2 220 172 0
68 Algarrobo Bajo INIA 09-05-2026 16:45 17,7 55,2 0 2,1 224 213 0
67 Algarrobo Bajo INIA 09-05-2026 16:30 17,9 54,4 0 2,3 213 254 0
66 Algarrobo Bajo INIA 09-05-2026 16:15 18,4 53,1 0 2,4 204 295 0
65 Algarrobo Bajo INIA 09-05-2026 16:00 18,7 52,1 0 3 222 334 0
64 Algarrobo Bajo INIA 09-05-2026 15:45 19,3 50,2 0 2,8 208 372 0
63 Algarrobo Bajo INIA 09-05-2026 15:30 20,1 47,8 0 3,1 201 408 0
62 Algarrobo Bajo INIA 09-05-2026 15:15 21,5 39 0 1,3 305 444 0
61 Algarrobo Bajo INIA 09-05-2026 15:00 21 35 0 1,3 278 475 0
60 Algarrobo Bajo INIA 09-05-2026 14:45 20,8 38,2 0 1,8 228 500 0
59 Algarrobo Bajo INIA 09-05-2026 14:30 20,9 37,6 0 1 211 525 0
58 Algarrobo Bajo INIA 09-05-2026 14:15 20,3 39,9 0 0,8 241 546 0
57 Algarrobo Bajo INIA 09-05-2026 14:00 20,1 41,6 0 1,2 310 564 0
56 Algarrobo Bajo INIA 09-05-2026 13:45 20 42,8 0 1,2 266 580 0
55 Algarrobo Bajo INIA 09-05-2026 13:30 19,3 42,4 0 0,9 11 592 0
54 Algarrobo Bajo INIA 09-05-2026 13:15 19,3 44,2 0 0,8 238 599 0
53 Algarrobo Bajo INIA 09-05-2026 13:00 18,5 43,7 0 1,1 350 602 0
52 Algarrobo Bajo INIA 09-05-2026 12:45 18,2 46,1 0 1,5 249 599 0
51 Algarrobo Bajo INIA 09-05-2026 12:30 18 49,5 0 1,4 281 594 0
50 Algarrobo Bajo INIA 09-05-2026 12:15 17,5 48,5 0 1,1 319 588 0
49 Algarrobo Bajo INIA 09-05-2026 12:00 17,2 53,6 0 1,5 288 576 0
48 Algarrobo Bajo INIA 09-05-2026 11:45 16,7 53,7 0 1,3 271 561 0
47 Algarrobo Bajo INIA 09-05-2026 11:30 16,5 54,8 0 1,4 302 540 0
46 Algarrobo Bajo INIA 09-05-2026 11:15 15,4 60,9 0 1,1 221 500 0
45 Algarrobo Bajo INIA 09-05-2026 11:00 14,4 62,1 0 1,1 200 491 0
44 Algarrobo Bajo INIA 09-05-2026 10:45 13,5 64,4 0 1,1 201 474 0
43 Algarrobo Bajo INIA 09-05-2026 10:30 12,9 67,6 0 0,8 191 460 0
42 Algarrobo Bajo INIA 09-05-2026 10:15 11,5 69,5 0 0,3 206 432 0
41 Algarrobo Bajo INIA 09-05-2026 10:00 9,9 70,5 0 0,9 173 336 0
40 Algarrobo Bajo INIA 09-05-2026 09:45 8,9 73,6 0 0,4 195 140 0
39 Algarrobo Bajo INIA 09-05-2026 09:30 8,1 76,1 0 0,1 268 113 0
38 Algarrobo Bajo INIA 09-05-2026 09:15 7,4 78,3 0 0,2 233 124 0
37 Algarrobo Bajo INIA 09-05-2026 09:00 7,1 81 0 0,4 192 128 0
36 Algarrobo Bajo INIA 09-05-2026 08:45 6,3 85,4 0 0,3 117 113 0
35 Algarrobo Bajo INIA 09-05-2026 08:30 5,5 88 0 0,6 62 79 0
34 Algarrobo Bajo INIA 09-05-2026 08:15 5,7 91 0 0 0 39 0
33 Algarrobo Bajo INIA 09-05-2026 08:00 4,9 91,9 0 0 268 21 0
32 Algarrobo Bajo INIA 09-05-2026 07:45 3,7 92,1 0 0,2 66 13 0
31 Algarrobo Bajo INIA 09-05-2026 07:30 4,4 90 0 0 4 4 0
30 Algarrobo Bajo INIA 09-05-2026 07:15 4,2 90,4 0 0,2 246 1 0
29 Algarrobo Bajo INIA 09-05-2026 07:00 5,2 89,1 0 0,5 202 0 0
28 Algarrobo Bajo INIA 09-05-2026 06:45 7,9 86,2 0 0,6 287 0 0
27 Algarrobo Bajo INIA 09-05-2026 06:30 7,9 89,4 0 0,7 292 0 0
26 Algarrobo Bajo INIA 09-05-2026 06:15 8 89 0 0,5 292 0 0
25 Algarrobo Bajo INIA 09-05-2026 06:00 7,8 89,1 0 0,5 303 0 0
24 Algarrobo Bajo INIA 09-05-2026 05:45 8,5 87,2 0 0,6 327 0 0
23 Algarrobo Bajo INIA 09-05-2026 05:30 8,2 88,3 0 1,1 335 0 0
22 Algarrobo Bajo INIA 09-05-2026 05:15 7,2 88,1 0 1,4 331 0 0
21 Algarrobo Bajo INIA 09-05-2026 05:00 4,6 91,2 0 0,6 37 0 0
20 Algarrobo Bajo INIA 09-05-2026 04:45 6,9 82,7 0 0,9 340 0 0
19 Algarrobo Bajo INIA 09-05-2026 04:30 5,3 87,8 0 0,7 342 0 0
18 Algarrobo Bajo INIA 09-05-2026 04:15 4,8 82,1 0 0,8 43 0 0
17 Algarrobo Bajo INIA 09-05-2026 04:00 4,2 82 0 1,3 38 0 0
16 Algarrobo Bajo INIA 09-05-2026 03:45 3,7 84,8 0 1,3 46 0 0
15 Algarrobo Bajo INIA 09-05-2026 03:30 4,9 82,6 0 0,4 48 0 0
14 Algarrobo Bajo INIA 09-05-2026 03:15 6,5 81,7 0 0,2 316 0 0
13 Algarrobo Bajo INIA 09-05-2026 03:00 5,8 80,3 0 0,7 5 0 0
12 Algarrobo Bajo INIA 09-05-2026 02:45 5,9 81,5 0 1 47 0 0
11 Algarrobo Bajo INIA 09-05-2026 02:30 6,3 83,1 0 0,5 36 0 0
10 Algarrobo Bajo INIA 09-05-2026 02:15 6,4 83,9 0 0,3 37 0 0
9 Algarrobo Bajo INIA 09-05-2026 02:00 6,9 83,5 0 0,5 31 0 0
8 Algarrobo Bajo INIA 09-05-2026 01:45 7,2 82,5 0 0,4 31 0 0
7 Algarrobo Bajo INIA 09-05-2026 01:30 7,4 82,6 0 0,6 32 0 0
6 Algarrobo Bajo INIA 09-05-2026 01:15 7,6 83 0 0,3 25 0 0
5 Algarrobo Bajo INIA 09-05-2026 01:00 7,9 78,4 0 0,8 40 0 0
4 Algarrobo Bajo INIA 09-05-2026 00:45 8 78,7 0 0,6 52 0 0
3 Algarrobo Bajo INIA 09-05-2026 00:30 9,1 76,8 0 0 310 0 0
2 Algarrobo Bajo INIA 09-05-2026 00:15 8,9 76,9 0 0,2 23 0 0
1 Algarrobo Bajo INIA 09-05-2026 00:00 10,4 73,2 0 0,4 212 0 0